Content
SEND FEEDBACK

Daily
Averages
Monthly
Summary
French Polynesia

PAPEETE, FRENCH POLYNESIA


Home > Oceania > French Polynesia
Elevation: 7 feet     Latitude: 17 33S     Longitude: 149 36W

WEATHER
 
SELECT A DAY
Number of Records: 214,666;   Date Range: 6/30/96 - 10/29/14
 
SHARE

PRINT THIS DATA

[ ← Previous Day ]
WEATHER ALMANAC - JULY 2, 2013
[ Next Day → ]
[ °C ]   °F
Weather ElementAverageHighLow
Temperature77.7 °F86 °F (11:30 am)73 °F (2:00 am)
Dewpoint70 °F73.4 °F (12:00 pm)66 °F (2:00 am)
Humidity76.6 %89 % (4:00 pm)55 % (11:00 am)
Barometer29.85 in29.91 in (8:00 am)29.80 in (1:30 pm)
Wind Speed5.4 mph12.7 mph (4:00 pm)
Weather ElementAverage
Visibility7.4 mi
Wind DirectionENE (58.3 °)

Weather ElementTotal
Precipitation---
Cooling Degree Days14.5 (Base 65)
Growing Degree Days29.5 (Base 50)
Averaged from 53 records on July 2, 2013
WEATHER CONDITIONS BREAKOUT
WIND DIRECTION BREAKOUT
WEATHER BY HOUR - JULY 2, 2013
[ °C ]   °F
Local TimeTemperatureDewpointHumidityBarometerVisibilityWind DirectionWind SpeedGust SpeedPrecipitationEventsConditions
1:00 AM73.4 °F66.2 °F78 %29.89 in6.2 miVariable2.3 mphPartly Cloudy
1:30 AM73.4 °F66.2 °F78 %29.86 in6.2 miCalmPartly Cloudy
2:00 AM73.0 °F66.0 °F72 %29.88 in12.0 miSouth (170°)2.3 mphScattered Clouds
2:00 AM73.4 °F66.2 °F78 %29.86 in6.2 miSouth (170°)2.3 mphPartly Cloudy
2:30 AM73.4 °F66.2 °F78 %29.86 in6.2 miVariable2.3 mphScattered Clouds
3:00 AM73.4 °F66.2 °F78 %29.83 in6.2 miEast (90°)5.8 mphPartly Cloudy
3:30 AM73.4 °F66.2 °F78 %29.83 in6.2 miENE (60°)3.5 mph
4:00 AM73.4 °F68.0 °F83 %29.83 in6.2 miENE (60°)4.6 mph
4:30 AM75.2 °F68.0 °F78 %29.83 in6.2 miENE (60°)4.6 mph
5:00 AM74.0 °F67.0 °F71 %29.86 in37.0 miEast (80°)2.3 mphClear
5:00 AM73.4 °F66.2 °F78 %29.86 in6.2 miVariable2.3 mph
5:30 AM73.4 °F66.2 °F78 %29.86 in6.2 miENE (70°)3.5 mph
6:00 AM73.4 °F68.0 °F83 %29.86 in6.2 miENE (70°)3.5 mphPartly Cloudy
6:30 AM75.2 °F68.0 °F78 %29.86 in6.2 miENE (60°)5.8 mphPartly Cloudy
7:00 AM75.2 °F68.0 °F78 %29.89 in6.2 miENE (70°)3.5 mphPartly Cloudy
7:30 AM77.0 °F68.0 °F74 %29.89 in6.2 miVariable2.3 mphPartly Cloudy
8:00 AM79.0 °F68.0 °F62 %29.91 in12.0 miSouth (190°)2.3 mphPartly Cloudy
8:00 AM78.8 °F68.0 °F69 %29.89 in6.2 miSouth (190°)2.3 mphPartly Cloudy
8:30 AM82.4 °F69.8 °F66 %29.89 in6.2 miVariable3.5 mphPartly Cloudy
9:00 AM82.4 °F71.6 °F70 %29.89 in6.2 miNNE (20°)5.8 mphPartly Cloudy
9:30 AM84.2 °F71.6 °F66 %29.89 in6.2 miNorth (10°)5.8 mphPartly Cloudy
10:00 AM84.2 °F71.6 °F66 %29.89 in6.2 miNNE (20°)6.9 mphPartly Cloudy
10:30 AM84.2 °F71.6 °F66 %29.89 in6.2 miNNE (20°)6.9 mphPartly Cloudy
11:00 AM85.0 °F71.0 °F55 %29.88 in12.0 miNorth (10°)11.2 mphScattered Clouds
11:00 AM84.2 °F71.6 °F66 %29.86 in6.2 miNorth (10°)5.8 mphPartly Cloudy
11:30 AM86.0 °F71.6 °F62 %29.86 in6.2 miNorth (10°)6.9 mphPartly Cloudy
12:00 PM84.2 °F73.4 °F70 %29.86 in6.2 miNNE (30°)9.2 mphPartly Cloudy
12:30 PM84.2 °F73.4 °F70 %29.83 in6.2 miNNE (30°)9.2 mphPartly Cloudy
1:00 PM82.4 °F73.4 °F74 %29.83 in6.2 miNNE (30°)9.2 mphScattered Clouds
1:30 PM82.4 °F73.4 °F74 %29.80 in6.2 miNNE (20°)9.2 mphMostly Cloudy
2:00 PM82.0 °F72.0 °F63 %29.82 in12.0 miNNE (30°)11.2 mphMostly Cloudy
2:00 PM82.4 °F71.6 °F70 %29.80 in6.2 miNNE (30°)5.8 mphMostly Cloudy
2:30 PM84.2 °F71.6 °F66 %29.80 in6.2 miNE (50°)6.9 mphMostly Cloudy
3:00 PM82.4 °F73.4 °F74 %29.80 in6.2 miNE (50°)9.2 mphScattered Clouds
3:30 PM80.6 °F71.6 °F74 %29.80 in6.2 miNE (50°)8.1 mphMostly Cloudy
4:00 PM75.2 °F71.6 °F89 %29.80 in1.9 miNorth (10°)12.7 mphRainLight Rain
4:30 PM75.2 °F71.6 °F89 %29.80 in4.3 miENE (60°)5.8 mphRainLight Rain
5:00 PM76.0 °F71.0 °F79 %29.82 in9.0 miCalmRainLight Rain
5:00 PM75.2 °F69.8 °F83 %29.80 in6.2 miCalmMostly Cloudy
5:30 PM77.0 °F69.8 °F78 %29.80 in6.2 miCalmScattered Clouds
6:00 PM77.0 °F71.6 °F83 %29.83 in6.2 miNorth (350°)4.6 mphMostly Cloudy
6:30 PM77.0 °F71.6 °F83 %29.83 in6.2 miNNE (30°)9.2 mphMostly Cloudy
7:00 PM75.2 °F71.6 °F89 %29.83 in6.2 miENE (70°)10.4 mphMostly Cloudy
7:30 PM75.2 °F71.6 °F89 %29.83 in6.2 miENE (60°)5.8 mphMostly Cloudy
8:00 PM76.0 °F72.0 °F82 %29.85 in12.0 miENE (60°)5.8 mphPartly Cloudy
8:00 PM75.2 °F71.6 °F89 %29.83 in6.2 miENE (60°)5.8 mphMostly Cloudy
8:30 PM75.2 °F71.6 °F89 %29.83 in6.2 miENE (60°)4.6 mphMostly Cloudy
9:00 PM75.2 °F71.6 °F89 %29.83 in6.2 miENE (60°)5.8 mphMostly Cloudy
10:00 PM75.2 °F71.6 °F89 %29.86 in6.2 miENE (70°)6.9 mphMostly Cloudy
10:30 PM75.2 °F71.6 °F89 %29.83 in6.2 miENE (70°)5.8 mphMostly Cloudy
11:00 PM75.0 °F70.0 °F81 %29.84 in12.0 miEast (100°)5.8 mphPartly Cloudy
11:00 PM75.2 °F69.8 °F83 %29.83 in6.2 miEast (100°)5.8 mphMostly Cloudy
11:30 PM75.2 °F69.8 °F83 %29.83 in6.2 miESE (110°)5.8 mphMostly Cloudy
Hourly data recorded from NTAA, located miles away from Papeete, French Polynesia







STORIES FROM OUR PARTNERS